When you browse on this site, cookies collect data to enhance your experience and personalize the content and advertising you see.
Visit our Privacy Policy to learn more. By continuing to use the site, you agree to this use of cookies and data.
  • In Hungary
  • List of Countries
  • For 7 days
  • Water Temperature
  • Satellite Maps
  • Weather Map
  • News
  • Weather Widgets
  • user-avatar
    Login

    Hourly Weather Manevichi

    Today, 22 April, Monday

    Time Temperature Precipitation Wind Pressure Humidity
    00:00 +6°C° 0 mm 2 mps 747 mmHg 93%
    01:00 +6°C° 0 mm 2 mps 748 mmHg 95%
    02:00 +5°C° 0 mm 2 mps 748 mmHg 97%
    03:00 +5°C° 0 mm 3 mps 748 mmHg 92%
    04:00 +7°C° 0 mm 3 mps 748 mmHg 88%
    05:00 +6°C° 0 mm 4 mps 749 mmHg 83%
    06:00 +7°C° 0 mm 4 mps 749 mmHg 77%
    07:00 +8°C° 0 mm 5 mps 750 mmHg 71%
    08:00 +9°C° 0 mm 5 mps 750 mmHg 64%
    09:00 +12°C° 0 mm 5 mps 750 mmHg 56%
    10:00 +13°C° 0 mm 6 mps 751 mmHg 48%
    11:00 +14°C° 0 mm 6 mps 751 mmHg 40%
    12:00 +15°C° 0 mm 6 mps 751 mmHg 38%
    13:00 +15°C° 0 mm 6 mps 751 mmHg 36%
    14:00 +16°C° 0 mm 6 mps 751 mmHg 34%
    15:00 +15°C° 0 mm 6 mps 751 mmHg 35%
    16:00 +15°C° 0 mm 6 mps 751 mmHg 36%
    17:00 +14°C° 0 mm 6 mps 751 mmHg 37%
    18:00 +13°C° 0 mm 5 mps 751 mmHg 42%
    19:00 +11°C° 0 mm 4 mps 752 mmHg 47%
    20:00 +9°C° 0 mm 3 mps 752 mmHg 52%
    21:00 +9°C° 0 mm 3 mps 752 mmHg 54%
    22:00 +8°C° 0 mm 3 mps 752 mmHg 56%
    23:00 +8°C° 0 mm 3 mps 753 mmHg 58%

    Tomorrow, 23 April, Tuesday

    Time Temperature Precipitation Wind Pressure Humidity
    00:00 +7°C° 0 mm 3 mps 753 mmHg 60%
    01:00 +7°C° 0 mm 3 mps 753 mmHg 61%
    02:00 +7°C° 0 mm 3 mps 753 mmHg 62%
    03:00 +5°C° 0 mm 3 mps 753 mmHg 63%
    04:00 +5°C° 0 mm 3 mps 753 mmHg 63%
    05:00 +5°C° 0 mm 3 mps 753 mmHg 64%
    06:00 +6°C° 0 mm 4 mps 753 mmHg 59%
    07:00 +8°C° 0 mm 5 mps 753 mmHg 53%
    08:00 +10°C° 0 mm 5 mps 753 mmHg 48%
    09:00 +11°C° 0 mm 6 mps 753 mmHg 44%
    10:00 +14°C° 0 mm 7 mps 753 mmHg 39%
    11:00 +16°C° 0 mm 7 mps 753 mmHg 35%
    12:00 +16°C° 0 mm 7 mps 753 mmHg 35%
    13:00 +16°C° 0 mm 7 mps 753 mmHg 35%
    14:00 +17°C° 0 mm 7 mps 752 mmHg 34%
    15:00 +17°C° 0 mm 7 mps 752 mmHg 36%
    16:00 +16°C° 0 mm 7 mps 752 mmHg 37%
    17:00 +16°C° 0 mm 7 mps 751 mmHg 38%
    18:00 +15°C° 0 mm 6 mps 752 mmHg 42%
    19:00 +13°C° 0 mm 5 mps 752 mmHg 47%
    20:00 +12°C° 0 mm 5 mps 752 mmHg 51%
    21:00 +10°C° 0 mm 5 mps 752 mmHg 52%
    22:00 +10°C° 0 mm 5 mps 752 mmHg 52%
    23:00 +9°C° 0 mm 5 mps 752 mmHg 53%

    Day after tomorrow, 24 April, Wednesday

    Time Temperature Precipitation Wind Pressure Humidity
    00:00 +9°C° 0 mm 5 mps 752 mmHg 54%
    01:00 +8°C° 0 mm 5 mps 752 mmHg 56%
    02:00 +8°C° 0 mm 5 mps 752 mmHg 57%
    03:00 +8°C° 0 mm 5 mps 752 mmHg 59%
    04:00 +7°C° 0 mm 5 mps 752 mmHg 61%
    05:00 +7°C° 0 mm 5 mps 751 mmHg 62%
    06:00 +8°C° 0 mm 6 mps 752 mmHg 57%
    07:00 +9°C° 0 mm 7 mps 752 mmHg 52%
    08:00 +11°C° 0 mm 8 mps 752 mmHg 47%
    09:00 +12°C° 0 mm 8 mps 752 mmHg 45%
    10:00 +13°C° 0 mm 8 mps 752 mmHg 43%
    11:00 +16°C° 0 mm 8 mps 752 mmHg 40%
    12:00 +16°C° 0 mm 8 mps 752 mmHg 40%
    13:00 +16°C° 0 mm 8 mps 752 mmHg 40%
    14:00 +16°C° 0 mm 7 mps 751 mmHg 40%
    15:00 +16°C° 0 mm 7 mps 751 mmHg 41%
    16:00 +16°C° 0 mm 6 mps 751 mmHg 42%
    17:00 +15°C° 0 mm 6 mps 751 mmHg 43%
    18:00 +14°C° 0 mm 5 mps 751 mmHg 46%
    19:00 +13°C° 0 mm 5 mps 751 mmHg 50%
    20:00 +12°C° 0 mm 4 mps 751 mmHg 53%
    21:00 +12°C° 0 mm 4 mps 751 mmHg 55%
    22:00 +11°C° 0 mm 4 mps 751 mmHg 58%
    23:00 +11°C° 0 mm 4 mps 751 mmHg 60%

    25 April, Thursday

    Time Temperature Precipitation Wind Pressure Humidity
    00:00 +11°C° 0 mm 4 mps 751 mmHg 62%
    01:00 +10°C° 0 mm 4 mps 751 mmHg 64%
    02:00 +9°C° 0 mm 5 mps 751 mmHg 65%
    03:00 +9°C° 0 mm 5 mps 751 mmHg 66%
    04:00 +8°C° 0 mm 5 mps 751 mmHg 66%
    05:00 +8°C° 0 mm 5 mps 751 mmHg 66%
    06:00 +9°C° 0 mm 5 mps 751 mmHg 63%
    07:00 +10°C° 0 mm 6 mps 751 mmHg 61%
    08:00 +11°C° 0 mm 6 mps 751 mmHg 58%
    09:00 +14°C° 0 mm 6 mps 751 mmHg 54%
    10:00 +15°C° 0 mm 6 mps 751 mmHg 50%
    11:00 +17°C° 0 mm 6 mps 751 mmHg 46%
    12:00 +19°C° 0 mm 6 mps 750 mmHg 45%
    13:00 +19°C° 0 mm 6 mps 750 mmHg 43%
    14:00 +20°C° 0 mm 6 mps 750 mmHg 41%
    15:00 +20°C° 0 mm 6 mps 749 mmHg 43%
    16:00 +20°C° 0 mm 6 mps 749 mmHg 44%
    17:00 +20°C° 0 mm 6 mps 749 mmHg 46%
    18:00 +17°C° 0 mm 5 mps 749 mmHg 51%
    19:00 +16°C° 0 mm 5 mps 749 mmHg 57%
    20:00 +14°C° 0 mm 4 mps 748 mmHg 62%
    21:00 +14°C° 0 mm 4 mps 748 mmHg 64%
    22:00 +13°C° 0 mm 4 mps 748 mmHg 66%
    23:00 +12°C° 0 mm 4 mps 748 mmHg 68%

    26 April, Friday

    Time Temperature Precipitation Wind Pressure Humidity
    00:00 +12°C° 0.1 mm 4 mps 748 mmHg 69%
    01:00 +12°C° 0.1 mm 4 mps 748 mmHg 71%
    02:00 +11°C° 0.1 mm 4 mps 748 mmHg 72%
    03:00 +11°C° 0.4 mm 4 mps 747 mmHg 75%
    04:00 +10°C° 0.4 mm 4 mps 747 mmHg 78%
    05:00 +10°C° 0.4 mm 4 mps 747 mmHg 81%
    06:00 +11°C° 0.1 mm 4 mps 747 mmHg 78%
    07:00 +12°C° 0.1 mm 4 mps 747 mmHg 75%
    08:00 +13°C° 0.1 mm 5 mps 747 mmHg 72%
    09:00 +15°C° 0 mm 5 mps 747 mmHg 66%
    10:00 +17°C° 0 mm 5 mps 747 mmHg 61%
    11:00 +20°C° 0 mm 5 mps 747 mmHg 55%
    12:00 +21°C° 0 mm 5 mps 746 mmHg 53%
    13:00 +23°C° 0 mm 5 mps 746 mmHg 51%
    14:00 +25°C° 0 mm 5 mps 745 mmHg 49%
    15:00 +25°C° 0 mm 5 mps 745 mmHg 49%
    16:00 +25°C° 0 mm 5 mps 745 mmHg 50%
    17:00 +23°C° 0 mm 5 mps 744 mmHg 50%
    18:00 +22°C° 0 mm 5 mps 744 mmHg 57%
    19:00 +20°C° 0 mm 4 mps 744 mmHg 63%
    20:00 +18°C° 0 mm 4 mps 744 mmHg 69%
    21:00 +17°C° 0.1 mm 4 mps 744 mmHg 70%
    22:00 +15°C° 0.1 mm 4 mps 744 mmHg 72%
    23:00 +15°C° 0.1 mm 4 mps 744 mmHg 73%

    27 April, Saturday

    Time Temperature Precipitation Wind Pressure Humidity
    00:00 +14°C° 0.1 mm 4 mps 744 mmHg 75%
    01:00 +13°C° 0.1 mm 3 mps 744 mmHg 77%
    02:00 +13°C° 0.1 mm 3 mps 743 mmHg 78%
    03:00 +13°C° 0 mm 3 mps 743 mmHg 78%
    04:00 +12°C° 0 mm 3 mps 743 mmHg 78%
    05:00 +12°C° 0 mm 3 mps 743 mmHg 78%
    06:00 +13°C° 0 mm 3 mps 743 mmHg 76%
    07:00 +16°C° 0 mm 3 mps 744 mmHg 73%
    08:00 +17°C° 0 mm 4 mps 744 mmHg 71%
    09:00 +19°C° 0 mm 3 mps 744 mmHg 65%
    10:00 +21°C° 0 mm 3 mps 744 mmHg 59%
    11:00 +24°C° 0 mm 3 mps 744 mmHg 53%
    12:00 +24°C° 0 mm 3 mps 744 mmHg 51%
    13:00 +25°C° 0 mm 3 mps 743 mmHg 49%
    14:00 +25°C° 0 mm 3 mps 743 mmHg 48%
    15:00 +24°C° 1.2 mm 3 mps 743 mmHg 53%
    16:00 +22°C° 1.2 mm 3 mps 743 mmHg 59%
    17:00 +22°C° 1.2 mm 3 mps 743 mmHg 64%
    18:00 +20°C° 1.5 mm 2 mps 744 mmHg 73%
    19:00 +18°C° 1.5 mm 2 mps 744 mmHg 82%
    20:00 +16°C° 1.5 mm 2 mps 744 mmHg 91%
    21:00 +16°C° 0.1 mm 2 mps 745 mmHg 93%
    22:00 +15°C° 0.1 mm 2 mps 745 mmHg 94%
    23:00 +15°C° 0.1 mm 2 mps 745 mmHg 96%
    Show more